Location: Janeiro
(34.9957°N, 76.7652°W)
Time: 06:40:22
(UTC+00:00)

Meteor 1-18 Rocket - Pass Details

Date: 14 December 2019
Orbit: 837 x 909 km, 81.2° (Epoch: 26 January)

Event Time Altitude Azimuth Distance (km) Brightness Sun altitude
Rises 23:02:56 0° 191° (S) 3,459 7.8 -13.3°
Reaches altitude 10° 23:05:23 10° 193° (SSW) 2,513 7.1 -13.8°
Maximum altitude 23:11:05 76° 278° (W) 890 4.4 -14.9°
Drops below altitude 10° 23:16:43 10° 5° (N) 2,482 6.4 -16.0°
Sets 23:19:08 0° 7° (N) 3,413 7.1 -16.4°
